Chattanooga, TN

7:43 PM EST on February 19, 2018 (GMT -0500)
Lovell

Weather History for KCHA - October, 2013

Change the Weather History Date:

Thursday, October 31, 2013

  Actual Average Record
Temperature  
Mean Temperature 67 °F 57 °F  
Max Temperature 74 °F 68 °F 86 °F (2016)
Min Temperature 60 °F 45 °F 25 °F (1954)
Degree Days  
Heating Degree Days 0 9  
Month to date heating degree days 129 157  
Since 1 July heating degree days 129 172  
Cooling Degree Days 2 0  
Month to date cooling degree days 82 48  
Year to date cooling degree days 1752 1737  
Growing Degree Days 16 (Base 50)    
Moisture  
Dew Point 59 °F    
Average Humidity 74    
Maximum Humidity 84    
Minimum Humidity 64    
Precipitation  
Precipitation 0.13 in 0.11 in 1.54 in (1895)
Month to date precipitation 0.30 3.28  
Year to date precipitation 56.61 42.58  
Snow  
Snow 0.00 in 0.00 in - ()
Month to date snowfall 0.0 0.0  
Since 1 July snowfall 0.0 0.0  
Since 1 September snowfall 0.0 0.0  
Snow Depth 0.00 in    
Sea Level Pressure  
Sea Level Pressure 29.96 in    
Wind  
Wind Speed 9 mph (South)    
Max Wind Speed 21 mph    
Max Gust Speed 29 mph    
Visibility 10 miles    
Events Rain    
T = Trace of Precipitation, MM = Missing Value Source: NWS Daily Summary

Daily Weather History Graph

Daily Weather History Graph

Search for Another Location

Airport or City:

Trip Planner

Search our weather history database for the weather conditions in past years. The results will help you decide how hot, cold, wet, or windy it might be!

Date:

Astronomy

Oct. 31, 2013 Rise Set
Actual Time 8:01 AM EDT 6:47 PM EDT
Civil Twilight 7:34 AM EDT 7:13 PM EDT
Nautical Twilight 7:05 AM EDT 7:43 PM EDT
Astronomical Twilight 6:35 AM EDT 8:12 PM EDT
Moon 4:56 AM EDT (10/31) 4:59 PM EDT (10/31)
Length of Visible Light 11h 38m
Length of Day
10h 46m
Waning Crescent, 10% of the Moon is Illuminated
Oct 31
Waning Crescent
Nov 3
New
Nov 10
First Quarter
Nov 17
Full
Nov 25
Last Quarter

Hourly Weather History & Observations

Time (EDT) Temp. Dew Point Humidity Pressure Visibility Wind Dir Wind Speed Gust Speed Precip Events Conditions
12:53 AM 62.1 °F 55.0 °F 78% 30.13 in 10.0 mi Calm Calm - N/A   Clear
1:53 AM 62.1 °F 55.0 °F 78% 30.12 in 10.0 mi Calm Calm - N/A   Clear
2:53 AM 62.1 °F 55.0 °F 78% 30.10 in 10.0 mi Calm Calm - N/A   Clear
3:53 AM 60.1 °F 55.0 °F 83% 30.08 in 10.0 mi Calm Calm - N/A   Clear
4:53 AM 61.0 °F 55.9 °F 83% 30.06 in 9.0 mi SE 3.5 mph - N/A   Clear
5:53 AM 63.0 °F 55.0 °F 75% 30.08 in 10.0 mi SSE 3.5 mph - N/A   Mostly Cloudy
6:53 AM 64.0 °F 55.0 °F 73% 30.07 in 10.0 mi South 4.6 mph - N/A   Mostly Cloudy
7:53 AM 64.0 °F 54.0 °F 70% 30.05 in 10.0 mi South 3.5 mph - N/A   Mostly Cloudy
8:53 AM 64.0 °F 54.0 °F 70% 30.05 in 10.0 mi South 3.5 mph - N/A   Overcast
9:53 AM 64.0 °F 55.9 °F 75% 30.04 in 10.0 mi South 4.6 mph - 0.00 in   Overcast
10:51 AM 66.2 °F 57.2 °F 73% 30.05 in 10.0 mi South 8.1 mph - N/A   Overcast
10:53 AM 64.9 °F 57.0 °F 75% 30.03 in 10.0 mi South 8.1 mph - N/A   Overcast
11:49 AM 68.0 °F 59.0 °F 73% 30.02 in 10.0 mi SSE 13.8 mph 19.6 mph N/A   Overcast
11:53 AM 66.9 °F 59.0 °F 76% 30.01 in 10.0 mi SSE 10.4 mph 19.6 mph N/A   Overcast
12:31 PM 69.8 °F 59.0 °F 68% 30.02 in 10.0 mi South 10.4 mph 18.4 mph N/A   Overcast
12:53 PM 70.0 °F 60.1 °F 71% 30.00 in 10.0 mi South 9.2 mph - N/A   Overcast
1:09 PM 69.8 °F 60.8 °F 73% 29.99 in 10.0 mi SSE 9.2 mph - N/A   Overcast
1:53 PM 71.1 °F 60.1 °F 68% 29.95 in 10.0 mi South 11.5 mph 18.4 mph N/A   Overcast
2:53 PM 73.0 °F 61.0 °F 66% 29.91 in 10.0 mi South 12.7 mph 24.2 mph N/A   Overcast
3:53 PM 73.0 °F 61.0 °F 66% 29.86 in 10.0 mi South 12.7 mph - N/A   Overcast
4:53 PM 73.9 °F 61.0 °F 64% 29.85 in 10.0 mi South 12.7 mph 17.3 mph N/A   Mostly Cloudy
5:53 PM 72.0 °F 62.1 °F 71% 29.82 in 10.0 mi South 12.7 mph 20.7 mph 0.01 in   Overcast
6:53 PM 73.0 °F 62.1 °F 68% 29.81 in 10.0 mi South 10.4 mph 20.7 mph N/A   Overcast
7:53 PM 70.0 °F 63.0 °F 78% 29.82 in 7.0 mi South 9.2 mph - 0.01 in Rain Light Rain
8:53 PM 69.1 °F 63.0 °F 81% 29.81 in 7.0 mi SSE 12.7 mph 20.7 mph 0.01 in Rain Light Rain
9:38 PM 69.8 °F 62.6 °F 78% 29.78 in 8.0 mi SSE 10.4 mph - 0.01 in Rain Light Rain
9:53 PM 68.0 °F 63.0 °F 84% 29.76 in 7.0 mi SSE 12.7 mph 24.2 mph 0.02 in Rain Light Rain
10:53 PM 68.0 °F 64.0 °F 87% 29.75 in 9.0 mi South 11.5 mph - 0.00 in   Overcast
11:53 PM 70.0 °F 64.0 °F 81% 29.74 in 9.0 mi South 18.4 mph 27.6 mph 0.00 in Rain Light Rain